Location: Unspecified
(0.0000°N, 0.0000°E)
Time: 17:47:39
(UTC+00:00)

STARLINK 1038 - Pass Details

Date: 22 January 2020
Orbit: 548 x 551 km, 53.0° (Epoch: 17 January)

Event Time Altitude Azimuth Distance (km) Brightness Sun altitude
Rises 04:10:34 0° 194° (SSW) 2,712 7.3 -28.2°
Reaches altitude 10° 04:13:06 10° 181° (S) 1,817 6.5 -27.7°
Maximum altitude 04:16:32 25° 124° (SE) 1,121 5.8 -26.9°
Drops below altitude 10° 04:19:56 10° 68° (ENE) 1,810 6.8 -26.1°
Sets 04:22:27 0° 55° (NE) 2,700 7.6 -25.5°
